ZPTAI SBST-SBSC

Flight info

Callsign ZPTAI
Flight time N/A
Altitude FL090
Route UKDAN KEVUN UMBAD
Aircraft C172/L-SC/C

Departure

Time N/A
Airport Santos Nero Moura Air Base / Guarujá Airport (SBST)

Arrival

Time 2026-05-07 01:35
Airport Santa Cruz Air Force Base (SBSC)
Time Latitude Longitude Altitude Speed Heading
2026-05-07 00:55 -23.41855 -44.74825 8924 ft 103 kts 76°
2026-05-07 00:55 -23.41686 -44.74073 8958 ft 101 kts 75°
2026-05-07 00:56 -23.41462 -44.73104 8997 ft 100 kts 75°
2026-05-07 00:56 -23.41292 -44.72368 9005 ft 101 kts 75°
2026-05-07 00:56 -23.41121 -44.71627 9006 ft 102 kts 75°
2026-05-07 00:56 -23.41005 -44.71125 9005 ft 103 kts 75°
2026-05-07 00:57 -23.40772 -44.70117 9001 ft 103 kts 75°
2026-05-07 00:57 -23.40655 -44.69613 9001 ft 104 kts 75°
2026-05-07 00:57 -23.40479 -44.68851 9000 ft 104 kts 75°
2026-05-07 00:57 -23.40314 -44.68090 9000 ft 104 kts 76°
2026-05-07 00:58 -23.40141 -44.67330 9000 ft 104 kts 76°
2026-05-07 00:58 -23.39974 -44.66569 8999 ft 104 kts 76°
2026-05-07 00:58 -23.39747 -44.65553 8999 ft 104 kts 76°
2026-05-07 00:58 -23.39635 -44.65047 9000 ft 104 kts 75°
2026-05-07 00:59 -23.39299 -44.63519 8996 ft 104 kts 76°
2026-05-07 00:59 -23.39081 -44.62504 9001 ft 103 kts 76°
2026-05-07 00:59 -23.38918 -44.61760 9053 ft 100 kts 76°
2026-05-07 01:00 -23.38811 -44.61272 9067 ft 100 kts 76°
2026-05-07 01:00 -23.38649 -44.60524 9033 ft 104 kts 76°
2026-05-07 01:00 -23.38471 -44.59755 9009 ft 106 kts 75°
2026-05-07 01:00 -23.38298 -44.58979 9000 ft 105 kts 76°
2026-05-07 01:01 -23.38121 -44.58211 8997 ft 105 kts 75°
2026-05-07 01:01 -23.37951 -44.57441 8998 ft 104 kts 76°
2026-05-07 01:01 -23.37779 -44.56679 8997 ft 104 kts 76°
2026-05-07 01:01 -23.37557 -44.55655 8990 ft 104 kts 76°
2026-05-07 01:02 -23.37392 -44.54890 8990 ft 104 kts 76°
2026-05-07 01:02 -23.37227 -44.54128 8990 ft 104 kts 76°
2026-05-07 01:02 -23.37117 -44.53620 8990 ft 104 kts 76°
2026-05-07 01:02 -23.36952 -44.52860 8991 ft 103 kts 76°
2026-05-07 01:03 -23.36780 -44.52107 9001 ft 103 kts 75°
2026-05-07 01:03 -23.36605 -44.51353 9005 ft 103 kts 75°
2026-05-07 01:03 -23.36430 -44.50597 9007 ft 103 kts 75°
2026-05-07 01:03 -23.36198 -44.49589 9007 ft 104 kts 75°
2026-05-07 01:04 -23.36022 -44.48829 9007 ft 104 kts 75°
2026-05-07 01:04 -23.35905 -44.48325 9007 ft 104 kts 75°
2026-05-07 01:04 -23.35670 -44.47308 9007 ft 104 kts 75°
2026-05-07 01:04 -23.35554 -44.46803 9007 ft 104 kts 75°
2026-05-07 01:05 -23.35320 -44.45790 9007 ft 104 kts 75°
2026-05-07 01:05 -23.35206 -44.45281 9007 ft 104 kts 76°
2026-05-07 01:05 -23.35034 -44.44522 9007 ft 104 kts 75°
2026-05-07 01:05 -23.34865 -44.43756 9007 ft 104 kts 75°
2026-05-07 01:06 -23.34692 -44.42995 9007 ft 104 kts 76°
2026-05-07 01:06 -23.34524 -44.42233 9007 ft 104 kts 75°
2026-05-07 01:06 -23.34296 -44.41216 9007 ft 104 kts 76°
2026-05-07 01:06 -23.34130 -44.40454 9006 ft 104 kts 75°
2026-05-07 01:07 -23.34014 -44.39947 9005 ft 104 kts 75°
2026-05-07 01:07 -23.33844 -44.39183 9005 ft 104 kts 76°
2026-05-07 01:07 -23.33671 -44.38423 9006 ft 104 kts 76°
2026-05-07 01:07 -23.33503 -44.37662 9006 ft 104 kts 75°
2026-05-07 01:08 -23.33331 -44.36896 9005 ft 104 kts 76°
2026-05-07 01:08 -23.33103 -44.35880 9005 ft 104 kts 75°
2026-05-07 01:08 -23.32987 -44.35373 9005 ft 104 kts 76°
2026-05-07 01:08 -23.32820 -44.34613 9005 ft 104 kts 75°
2026-05-07 01:09 -23.32648 -44.33850 9005 ft 104 kts 76°
2026-05-07 01:09 -23.32477 -44.33088 9005 ft 104 kts 76°
2026-05-07 01:09 -23.32305 -44.32326 9005 ft 104 kts 75°
2026-05-07 01:09 -23.32078 -44.31310 9004 ft 104 kts 75°
2026-05-07 01:10 -23.31908 -44.30549 9004 ft 104 kts 76°
2026-05-07 01:10 -23.31792 -44.30042 9004 ft 104 kts 75°
2026-05-07 01:10 -23.31623 -44.29280 9008 ft 104 kts 75°
2026-05-07 01:10 -23.31452 -44.28527 9031 ft 102 kts 75°
2026-05-07 01:11 -23.31282 -44.27774 9041 ft 103 kts 75°
2026-05-07 01:11 -23.31111 -44.27019 9045 ft 103 kts 75°
2026-05-07 01:11 -23.30939 -44.26259 9047 ft 104 kts 75°
2026-05-07 01:11 -23.30767 -44.25496 9049 ft 104 kts 75°
2026-05-07 01:12 -23.30594 -44.24728 9050 ft 105 kts 75°
2026-05-07 01:12 -23.30421 -44.23964 9051 ft 105 kts 75°
2026-05-07 01:12 -23.30248 -44.23196 9052 ft 105 kts 75°
2026-05-07 01:12 -23.30075 -44.22428 9053 ft 105 kts 75°
2026-05-07 01:13 -23.29844 -44.21400 9055 ft 105 kts 75°
2026-05-07 01:13 -23.29729 -44.20889 9055 ft 105 kts 75°
2026-05-07 01:13 -23.29555 -44.20119 9056 ft 105 kts 75°
2026-05-07 01:13 -23.29382 -44.19348 9056 ft 105 kts 75°
2026-05-07 01:14 -23.29150 -44.18320 9056 ft 105 kts 75°
2026-05-07 01:14 -23.29035 -44.17806 9057 ft 105 kts 75°
2026-05-07 01:14 -23.28861 -44.17035 9057 ft 105 kts 75°
2026-05-07 01:14 -23.28687 -44.16262 9056 ft 105 kts 75°
2026-05-07 01:15 -23.28514 -44.15491 9056 ft 105 kts 75°
2026-05-07 01:15 -23.28340 -44.14718 9055 ft 105 kts 75°
2026-05-07 01:15 -23.28087 -44.13980 9054 ft 105 kts 56°
2026-05-07 01:15 -23.27670 -44.13333 9062 ft 105 kts 54°
2026-05-07 01:16 -23.27249 -44.12691 9056 ft 105 kts 54°
2026-05-07 01:16 -23.26684 -44.11829 9053 ft 105 kts 54°
2026-05-07 01:16 -23.26401 -44.11397 9053 ft 105 kts 54°
2026-05-07 01:16 -23.25975 -44.10748 9052 ft 105 kts 54°
2026-05-07 01:17 -23.25553 -44.10105 9051 ft 105 kts 54°
2026-05-07 01:17 -23.25130 -44.09460 9050 ft 105 kts 54°
2026-05-07 01:17 -23.24706 -44.08814 9050 ft 105 kts 54°
2026-05-07 01:17 -23.24281 -44.08166 9049 ft 105 kts 54°
2026-05-07 01:18 -23.23702 -44.07284 8948 ft 113 kts 54°
2026-05-07 01:18 -23.23393 -44.06814 8842 ft 118 kts 54°
2026-05-07 01:18 -23.22906 -44.06070 8670 ft 123 kts 54°
2026-05-07 01:18 -23.22404 -44.05301 8487 ft 127 kts 54°
2026-05-07 01:19 -23.21914 -44.04548 8263 ft 117 kts 54°
2026-05-07 01:19 -23.21453 -44.03839 8036 ft 114 kts 54°
2026-05-07 01:19 -23.20998 -44.03150 7829 ft 112 kts 53°
2026-05-07 01:19 -23.20542 -44.02471 7636 ft 110 kts 53°
2026-05-07 01:20 -23.19953 -44.01592 7414 ft 108 kts 53°
2026-05-07 01:20 -23.19658 -44.01151 7297 ft 108 kts 53°
2026-05-07 01:20 -23.19078 -44.00280 7079 ft 107 kts 53°
2026-05-07 01:20 -23.18789 -43.99845 6969 ft 107 kts 53°
2026-05-07 01:21 -23.18354 -43.99189 6796 ft 107 kts 53°
2026-05-07 01:21 -23.17918 -43.98531 6628 ft 107 kts 53°
2026-05-07 01:21 -23.17486 -43.97876 6459 ft 107 kts 53°
2026-05-07 01:21 -23.17051 -43.97216 6291 ft 107 kts 53°
2026-05-07 01:22 -23.16616 -43.96555 6118 ft 108 kts 53°
2026-05-07 01:22 -23.16184 -43.95895 5945 ft 108 kts 53°
2026-05-07 01:22 -23.15750 -43.95230 5774 ft 108 kts 53°
2026-05-07 01:22 -23.15319 -43.94570 5601 ft 108 kts 53°
2026-05-07 01:23 -23.14881 -43.93913 5430 ft 108 kts 52°
2026-05-07 01:23 -23.14441 -43.93260 5267 ft 107 kts 52°
2026-05-07 01:23 -23.13998 -43.92594 5088 ft 111 kts 52°
2026-05-07 01:23 -23.13541 -43.91911 4928 ft 109 kts 54°
2026-05-07 01:24 -23.13120 -43.91274 4727 ft 99 kts 54°
2026-05-07 01:24 -23.12740 -43.90703 4615 ft 93 kts 54°
2026-05-07 01:24 -23.12355 -43.90127 4532 ft 98 kts 54°
2026-05-07 01:24 -23.11942 -43.89506 4385 ft 105 kts 55°
2026-05-07 01:25 -23.11511 -43.88848 4216 ft 109 kts 56°
2026-05-07 01:25 -23.11068 -43.88176 4044 ft 110 kts 56°
2026-05-07 01:25 -23.10623 -43.87507 3892 ft 109 kts 56°
2026-05-07 01:25 -23.10179 -43.86842 3756 ft 109 kts 56°
2026-05-07 01:26 -23.09731 -43.86175 3597 ft 109 kts 56°
2026-05-07 01:26 -23.09296 -43.85529 3454 ft 104 kts 55°
2026-05-07 01:26 -23.08882 -43.84903 3319 ft 100 kts 56°
2026-05-07 01:26 -23.08496 -43.84315 3176 ft 92 kts 56°
2026-05-07 01:27 -23.08133 -43.83762 3076 ft 88 kts 56°
2026-05-07 01:27 -23.07661 -43.83047 2930 ft 87 kts 55°
2026-05-07 01:27 -23.07423 -43.82697 2860 ft 87 kts 55°
2026-05-07 01:27 -23.07068 -43.82173 2751 ft 86 kts 55°
2026-05-07 01:28 -23.06717 -43.81653 2641 ft 85 kts 55°
2026-05-07 01:28 -23.06259 -43.80966 2498 ft 84 kts 55°
2026-05-07 01:28 -23.06034 -43.80627 2430 ft 83 kts 54°
2026-05-07 01:28 -23.05693 -43.80119 2323 ft 83 kts 54°
2026-05-07 01:29 -23.05357 -43.79612 2218 ft 83 kts 53°
2026-05-07 01:29 -23.05019 -43.79111 2113 ft 83 kts 52°
2026-05-07 01:29 -23.04673 -43.78596 2000 ft 86 kts 51°
2026-05-07 01:29 -23.04318 -43.78070 1895 ft 87 kts 52°
2026-05-07 01:30 -23.03961 -43.77533 1781 ft 89 kts 51°
2026-05-07 01:30 -23.03578 -43.76999 1664 ft 90 kts 40°
2026-05-07 01:30 -23.03084 -43.76632 1624 ft 80 kts 30°
2026-05-07 01:30 -23.02636 -43.76329 1575 ft 74 kts 27°
2026-05-07 01:31 -23.02199 -43.76052 1559 ft 72 kts 25°
2026-05-07 01:31 -23.01770 -43.75797 1566 ft 67 kts 24°
2026-05-07 01:31 -23.01351 -43.75560 1564 ft 68 kts 22°
2026-05-07 01:31 -23.00923 -43.75330 1548 ft 71 kts 21°
2026-05-07 01:32 -23.00456 -43.75094 1472 ft 77 kts 21°
2026-05-07 01:32 -22.99959 -43.74855 1354 ft 78 kts 20°
2026-05-07 01:32 -22.99450 -43.74615 1210 ft 81 kts 20°
2026-05-07 01:32 -22.98921 -43.74379 1070 ft 83 kts 19°
2026-05-07 01:33 -22.98392 -43.74152 959 ft 79 kts 19°
2026-05-07 01:33 -22.97882 -43.73934 834 ft 79 kts 19°
2026-05-07 01:33 -22.97370 -43.73721 702 ft 78 kts 19°
2026-05-07 01:33 -22.96865 -43.73503 552 ft 78 kts 20°
2026-05-07 01:34 -22.96368 -43.73288 429 ft 76 kts 20°
2026-05-07 01:34 -22.95886 -43.73080 327 ft 74 kts 20°
2026-05-07 01:34 -22.95414 -43.72880 228 ft 73 kts 18°
2026-05-07 01:34 -22.94935 -43.72691 120 ft 74 kts 18°
2026-05-07 01:35 -22.94463 -43.72481 28 ft 72 kts 21°
2026-05-07 01:35 -22.94064 -43.72304 14 ft 47 kts 18°
2026-05-07 01:35 -22.93816 -43.72191 14 ft 13 kts 56°
2026-05-07 01:35 -22.93817 -43.72149 14 ft 5 kts 105°
2026-05-07 01:36 -22.93819 -43.72142 14 ft 0 kts 105°
2026-05-07 01:36 -22.93828 -43.72087 14 ft 16 kts 82°
2026-05-07 01:36 -22.93713 -43.72017 14 ft 23 kts 22°
2026-05-07 01:36 -22.93583 -43.71963 14 ft 19 kts 20°
2026-05-07 01:37 -22.93439 -43.71904 14 ft 26 kts 21°
2026-05-07 01:37 -22.93263 -43.71832 14 ft 21 kts 20°
2026-05-07 01:37 -22.93218 -43.71786 14 ft 8 kts 103°
2026-05-07 01:37 -22.93243 -43.71710 14 ft 10 kts 99°
2026-05-07 01:38 -22.93284 -43.71687 14 ft 4 kts 149°
2026-05-07 01:38 -22.93291 -43.71676 14 ft 0 kts 109°